Le nostre stazioni meteo in Italia

Pubblicità
Il mio iltempo24.it
Capo Palinuro, Italia (16310): Temperatura & dewpoint: 16.01.2020 00:00:00 - 22.01.2020 00:00:00 (CET)Capo Palinuro, Italia (16310): velocità del vento: 16.01.2020 00:00:00 - 22.01.2020 00:00:00 (CET)Capo Palinuro, Italia (16310): direzione del vento: 16.01.2020 00:00:00 - 22.01.2020 00:00:00 (CET)Capo Palinuro, Italia (16310): reduced air pressure: 16.01.2020 00:00:00 - 22.01.2020 00:00:00 (CET)Capo Palinuro, Italia (16310): visibility: 16.01.2020 00:00:00 - 22.01.2020 00:00:00 (CET)Capo Palinuro, Italia (16310): ore di luce: 16.01.2020 00:00:00 - 22.01.2020 00:00:00 (CET)
Data & Tempo tt [°C] td [°C] ff [km/h] ff [kn] dd ppp [hPa] vv [km] sd [min]
22.01.2020 00:00:00 - - - - - - - -
21.01.2020 23:00:00 10,2 6,4 5 3 NNE 1035,4 20 -
21.01.2020 22:00:00 10,2 5,8 8 4 NE 1035,4 20 -
21.01.2020 21:00:00 11,2 8,2 11 6 E 1035,2 20 -
21.01.2020 20:00:00 11,6 7,1 8 4 ENE 1035,2 20 -
21.01.2020 19:00:00 11,2 8,2 8 4 E 1035,2 20 -
21.01.2020 18:00:00 12,0 9,9 8 4 ENE 1035,2 20 -
21.01.2020 17:00:00 13,0 10,5 9 5 ENE 1035,3 20 24
21.01.2020 16:00:00 14,4 10,2 8 4 ESE 1035,4 20 60
21.01.2020 15:00:00 14,0 10,6 9 5 E 1035,6 20 36
21.01.2020 14:00:00 14,8 10,0 8 4 ESE 1035,6 20 36
21.01.2020 13:00:00 15,8 8,8 9 5 E 1036,1 20 42
21.01.2020 12:00:00 14,2 6,8 8 4 E 1036,2 20 60
21.01.2020 11:00:00 13,2 6,8 5 3 NE 1035,6 20 60
21.01.2020 10:00:00 11,6 6,5 16 9 N 1035,4 20 60
21.01.2020 09:00:00 11,0 6,4 16 9 NNO 1035,3 20 60
21.01.2020 08:00:00 11,0 6,7 15 8 NO 1035,0 20 24
21.01.2020 07:00:00 11,4 6,3 16 9 SO 1034,7 15 -
21.01.2020 06:00:00 11,0 6,2 9 5 S 1034,8 12 -
21.01.2020 05:00:00 11,2 6,7 18 10 S 1034,8 12 -
21.01.2020 04:00:00 11,8 6,1 15 8 SSE 1034,7 12 -
21.01.2020 03:00:00 11,8 5,9 21 11 SSE 1034,7 12 -
21.01.2020 02:00:00 11,8 5,9 15 8 O 1034,6 12 -
21.01.2020 01:00:00 11,8 5,9 16 9 SO 1034,5 12 -
21.01.2020 00:00:00 11,4 5,5 15 8 SSO 1034,2 12 -
20.01.2020 23:00:00 11,8 5,9 18 10 SO 1033,9 12 -
20.01.2020 22:00:00 11,8 5,9 22 12 N 1033,5 20 -
20.01.2020 21:00:00 11,8 6,1 22 12 N 1033,0 20 -
20.01.2020 20:00:00 11,8 6,1 22 12 N 1032,5 20 -
20.01.2020 19:00:00 11,6 5,9 24 13 N 1032,2 20 -
20.01.2020 18:00:00 11,6 5,9 24 13 NNE 1032,1 20 -
20.01.2020 17:00:00 12,2 6,0 22 12 N 1031,6 20 0
20.01.2020 16:00:00 12,6 6,4 21 11 NO 1031,5 20 0
20.01.2020 15:00:00 13,2 6,5 16 9 N 1031,4 20 0
20.01.2020 14:00:00 13,0 6,4 15 8 NNO 1031,3 20 0
20.01.2020 13:00:00 13,0 6,6 15 8 NNO 1031,2 20 0
20.01.2020 12:00:00 13,0 6,4 15 8 N 1030,9 20 6
20.01.2020 11:00:00 12,8 6,6 13 7 N 1030,5 20 30
20.01.2020 10:00:00 12,0 6,1 21 11 NNO 1029,5 20 6
20.01.2020 09:00:00 11,2 5,3 16 9 N 1028,5 20 18
20.01.2020 08:00:00 11,0 5,3 24 13 N 1027,9 20 6
20.01.2020 07:00:00 10,8 4,7 28 15 NNE 1027,4 20 -
20.01.2020 06:00:00 10,8 4,7 28 15 NNE 1027,0 20 -
20.01.2020 05:00:00 10,8 4,3 18 10 NNO 1026,9 20 -
20.01.2020 04:00:00 10,8 4,7 21 11 NNE 1026,5 20 -
20.01.2020 03:00:00 10,6 4,7 22 12 N 1026,1 20 -
20.01.2020 02:00:00 10,6 4,7 22 12 NNE 1025,5 20 -
20.01.2020 01:00:00 10,6 5,2 18 10 N 1025,5 20 -
20.01.2020 00:00:00 10,6 5,2 21 11 N 1025,2 20 -
19.01.2020 23:00:00 10,6 5,2 16 9 N 1025,1 20 -
19.01.2020 22:00:00 11,0 6,2 9 5 OSO 1024,4 20 -
19.01.2020 21:00:00 11,4 5,9 11 6 SSO 1024,1 20 -
19.01.2020 20:00:00 11,2 6,4 9 5 OSO 1023,7 20 -
19.01.2020 19:00:00 11,2 7,7 13 7 SO 1023,1 20 -
19.01.2020 18:00:00 11,4 7,3 9 5 NNE 1022,3 20 -
19.01.2020 17:00:00 11,6 7,9 0 0 N 1021,8 20 30
19.01.2020 16:00:00 12,4 7,3 0 0 N 1021,8 20 60
19.01.2020 15:00:00 13,0 7,7 9 5 NNE 1021,5 20 60
19.01.2020 14:00:00 13,0 9,1 11 6 SSE 1021,6 20 60
19.01.2020 13:00:00 13,4 9,5 11 6 SSE 1021,6 20 60
19.01.2020 12:00:00 12,8 9,4 11 6 SE 1021,5 20 60
19.01.2020 11:00:00 11,6 7,1 11 6 SE 1021,3 20 60
19.01.2020 10:00:00 11,0 6,5 9 5 NNE 1020,4 15 60
19.01.2020 09:00:00 10,0 6,7 9 5 NNE 1020,4 15 60
19.01.2020 08:00:00 9,2 6,3 0 0 N 1020,5 15 60
19.01.2020 07:00:00 10,0 7,2 8 4 NNE 1020,4 15 0
19.01.2020 06:00:00 10,4 7,7 8 4 NNE 1020,8 15 -
19.01.2020 05:00:00 11,0 8,4 11 6 NNE 1021,4 15 -
19.01.2020 04:00:00 11,0 8,6 0 0 N 1021,4 15 -
19.01.2020 03:00:00 11,0 8,2 0 0 N 1021,4 15 -
19.01.2020 02:00:00 11,0 8,6 9 5 NNE 1021,4 15 -
19.01.2020 01:00:00 11,0 8,6 0 0 N 1021,4 15 -
19.01.2020 00:00:00 11,0 8,6 0 0 N 1021,4 15 -
18.01.2020 23:00:00 10,0 7,4 0 0 N 1021,5 15 -
18.01.2020 22:00:00 9,8 7,2 9 5 NNE 1021,5 15 -
18.01.2020 21:00:00 10,0 7,2 0 0 N 1021,5 15 -
18.01.2020 20:00:00 10,2 7,6 9 5 NNE 1021,5 15 -
18.01.2020 19:00:00 10,8 8,4 9 5 NNE 1021,4 15 -
18.01.2020 18:00:00 11,0 8,6 9 5 N 1022,4 15 -
18.01.2020 17:00:00 11,4 9,1 0 0 N 1022,0 15 0
18.01.2020 16:00:00 12,0 9,4 0 0 N 1022,3 15 0
18.01.2020 15:00:00 12,2 8,9 9 5 NNE 1022,4 15 0
18.01.2020 14:00:00 12,2 8,9 0 0 N 1022,4 15 30
18.01.2020 13:00:00 11,0 8,6 0 0 N 1023,4 15 0
18.01.2020 12:00:00 13,2 10,2 0 0 N 1023,2 12 0
18.01.2020 11:00:00 11,8 8,5 9 5 NNE 1024,3 15 0
18.01.2020 10:00:00 10,0 7,6 9 5 NNE 1024,4 15 12
18.01.2020 09:00:00 10,0 7,1 8 4 O 1024,5 12 0
18.01.2020 08:00:00 10,6 8,5 8 4 SSO 1024,5 15 0
18.01.2020 07:00:00 10,2 9,3 9 5 ESE 1024,5 10 0
18.01.2020 06:00:00 10,2 8,1 8 4 ESE 1024,9 20 -
18.01.2020 05:00:00 10,2 7,8 8 4 SE 1025,3 20 -
18.01.2020 04:00:00 10,2 7,6 9 5 E 1025,4 20 -
18.01.2020 03:00:00 10,4 7,8 5 3 ESE 1025,5 20 -
18.01.2020 02:00:00 10,2 7,3 8 4 E 1025,6 20 -
18.01.2020 01:00:00 10,6 7,3 8 4 E 1025,8 20 -
18.01.2020 00:00:00 10,4 7,1 9 5 ENE 1025,9 20 -
17.01.2020 23:00:00 10,4 7,1 9 5 ENE 1025,9 15 -
17.01.2020 22:00:00 10,0 8,1 9 5 NE 1025,8 15 -
17.01.2020 21:00:00 10,0 7,9 5 3 NNE 1025,7 15 -
17.01.2020 20:00:00 10,4 8,0 8 4 NNE 1025,6 15 -
17.01.2020 19:00:00 11,0 8,0 5 3 NO 1025,4 15 -
17.01.2020 18:00:00 11,0 8,9 5 3 NNE 1025,5 15 -
17.01.2020 17:00:00 11,4 8,4 8 4 NNE 1025,4 15 30
17.01.2020 16:00:00 12,4 8,3 8 4 NNE 1025,4 15 60
17.01.2020 15:00:00 13,2 8,9 5 3 N 1025,5 15 60
17.01.2020 14:00:00 13,4 9,1 8 4 NNE 1026,1 18 60
17.01.2020 13:00:00 12,8 8,5 9 5 ENE 1026,4 20 60
17.01.2020 12:00:00 13,0 9,2 8 4 SSO 1026,4 15 60
17.01.2020 11:00:00 13,0 9,1 5 3 S 1026,3 15 60
17.01.2020 10:00:00 11,0 8,0 8 4 E 1026,6 20 30
17.01.2020 09:00:00 10,2 7,6 13 7 E 1026,5 20 48
17.01.2020 08:00:00 9,8 8,1 8 4 ENE 1026,5 20 30
17.01.2020 07:00:00 9,8 8,1 9 5 NNO 1026,4 20 -
17.01.2020 06:00:00 9,0 7,3 8 4 NNO 1026,6 20 -
17.01.2020 05:00:00 - - - - - - - -
17.01.2020 04:00:00 10,0 7,6 9 5 NO 1026,5 20 -
17.01.2020 03:00:00 10,0 7,8 8 4 NE 1026,8 20 -
17.01.2020 02:00:00 10,0 7,8 5 3 NNO 1026,9 20 -
17.01.2020 01:00:00 9,8 7,9 4 2 ENE 1026,9 20 -
17.01.2020 00:00:00 9,8 7,9 4 2 NE 1027,0 20 -
16.01.2020 23:00:00 10,0 8,1 11 6 NNE 1026,7 20 -
16.01.2020 22:00:00 10,0 7,9 9 5 NNE 1026,7 20 -
16.01.2020 21:00:00 11,0 8,2 8 4 ENE 1026,6 20 -
16.01.2020 20:00:00 11,0 7,9 11 6 N 1026,7 20 -
16.01.2020 19:00:00 11,0 8,0 9 5 N 1026,8 20 -
16.01.2020 18:00:00 11,0 8,0 11 6 NO 1026,8 20 -
16.01.2020 17:00:00 11,8 8,8 15 8 NO 1027,1 20 -
16.01.2020 16:00:00 12,4 8,5 13 7 ENE 1027,2 20 60
16.01.2020 15:00:00 13,0 6,8 11 6 N 1027,9 20 60
16.01.2020 14:00:00 13,0 7,2 13 7 ENE 1028,2 20 60
16.01.2020 13:00:00 13,0 7,2 13 7 NE 1028,2 20 60
16.01.2020 12:00:00 13,0 7,2 9 5 ENE 1028,2 20 60
16.01.2020 11:00:00 13,0 6,8 15 8 E 1027,8 20 60
16.01.2020 10:00:00 11,6 5,0 8 4 NE 1027,8 20 60
16.01.2020 09:00:00 10,6 4,7 9 5 NNE 1027,8 20 60
16.01.2020 08:00:00 9,0 5,5 9 5 N 1027,8 20 30
16.01.2020 07:00:00 8,8 6,3 11 6 SO 1027,7 20 -
16.01.2020 06:00:00 9,0 6,6 8 4 NE 1028,2 20 -
16.01.2020 05:00:00 9,6 7,4 8 4 NNE 1028,1 20 -
16.01.2020 04:00:00 10,6 8,2 8 4 ENE 1028,0 20 -
16.01.2020 03:00:00 10,8 8,2 8 4 SSE 1028,0 20 -
16.01.2020 02:00:00 10,8 8,2 8 4 ENE 1028,0 20 -
16.01.2020 01:00:00 11,0 8,0 8 4 E 1028,0 20 -
16.01.2020 00:00:00 11,0 7,7 9 5 SSE 1028,0 20 -

tt = Temperatura
td = dewpoint
ff = velocità del vento
dd = direzione del vento
ppp = reduced air pressure
vv = visibility
sd = ore di luce

Stazioni seguenti

WeatherPro
AMSI
MeteoEarth